GLENN Weather Reports


Display with metric or nautical units.
time (UTC)temp
F
wind
direction
speed
MPH
gust
MPH
rain 1hr
in
rain 24hr
in
rain mn
in
humidity
%
barometer
mb
20260506221521 62 302 1.0 10.0 0.00 0.00 0.00 31 1013.6
20260506220007 61 81 5.0 9.0 0.00 0.00 0.00 34 1013.6
20260506214510 61 10 2.0 8.0 0.00 0.00 0.00 36 1014.1
20260506213016 60 92 2.0 5.0 0.00 0.00 0.00 33 1014.5
20260506211518 59 57 3.0 10.0 0.00 0.00 0.00 35 1014.9
20260506210026 59 192 2.0 10.0 0.00 0.00 0.00 37 1015.1
20260506204508 58 215 1.0 6.0 0.00 0.00 0.00 36 1015.3
20260506203008 56 101 0.0 7.0 0.00 0.00 0.00 33 1015.6
20260506201517 55 42 1.0 10.0 0.00 0.00 0.00 32 1015.7
20260506200021 54 121 2.0 7.0 0.00 0.00 0.00 33 1016.0
20260506194526 53 76 2.0 8.0 0.00 0.00 0.00 33 1016.2
20260506193010 53 304 4.0 5.0 0.00 0.00 0.00 31 1016.5
20260506191528 52 10 0.0 2.0 0.00 0.00 0.00 35 1016.6
20260506190019 51 154 3.0 8.0 0.00 0.00 0.00 31 1016.7
20260506184540 50 329 2.0 8.0 0.00 0.00 0.00 27 1017.0
20260506183037 50 278 4.0 8.0 0.00 0.00 0.00 30 1017.2
20260506181515 49 272 1.0 6.0 0.00 0.00 0.00 24 1017.4
20260506180016 49 241 3.0 9.0 0.00 0.00 0.00 25 1017.5
20260506174525 48 73 1.0 5.0 0.00 0.00 0.00 29 1017.6
20260506173025 47 336 2.0 6.0 0.00 0.00 0.00 32 1017.8
20260506171528 47 360 2.0 6.0 0.00 0.00 0.00 31 1018.0
20260506170014 45 180 2.0 8.0 0.00 0.00 0.00 33 1018.2
20260506164523 45 352 1.0 8.0 0.00 0.00 0.00 35 1018.3
20260506163025 45 310 3.0 8.0 0.00 0.00 0.00 38 1018.3
20260506161525 44 76 1.0 4.0 0.00 0.00 0.00 38 1018.5
20260506160026 44 344 3.0 5.0 0.00 0.00 0.00 39 1018.5
20260506154520 43 84 1.0 6.0 0.00 0.00 0.00 42 1018.6
20260506153022 42 234 1.0 4.0 0.00 0.00 0.00 42 1018.7
20260506151507 41 333 1.0 4.0 0.00 0.00 0.00 47 1018.8
20260506150010 39 302 1.0 4.0 0.00 0.00 0.00 58 1018.9
20260506144519 38 352 2.0 4.0 0.00 0.00 0.00 58 1019.0
20260506143022 37 323 1.0 2.0 0.00 0.00 0.00 60 1019.1
20260506141503 37 335 1.0 2.0 0.00 0.00 0.00 63 1019.1
20260506140009 37 44 0.0 3.0 0.00 0.00 0.00 56 1019.2
20260506134510 34 108 2.0 3.0 0.00 0.00 0.00 63 1019.2
20260506133018 32 104 3.0 4.0 0.00 0.00 0.00 64 1019.1
20260506131529 29 108 3.0 3.0 0.00 0.00 0.00 69 1019.0
20260506130005 29 109 3.0 4.0 0.00 0.00 0.00 69 1019.1
20260506124509 28 122 3.0 4.0 0.00 0.00 0.00 69 1019.0
20260506123017 28 99 3.0 4.0 0.00 0.00 0.00 69 1018.8
20260506121520 28 114 2.0 3.0 0.00 0.00 0.00 70 1018.9
20260506120026 28 105 3.0 4.0 0.00 0.00 0.00 69 1018.8
20260506114518 27 107 4.0 6.0 0.00 0.00 0.00 73 1018.8
20260506113024 28 154 5.0 6.0 0.00 0.00 0.00 70 1018.8
20260506111517 27 137 4.0 4.0 0.00 0.00 0.00 73 1018.8
20260506110021 28 119 4.0 6.0 0.00 0.00 0.00 71 1019.0
20260506104525 28 115 4.0 4.0 0.00 0.00 0.00 72 1019.1
20260506103012 27 125 4.0 4.0 0.00 0.00 0.00 73 1019.1
20260506101516 28 136 4.0 4.0 0.00 0.00 0.00 71 1019.1
20260506100020 28 121 3.0 4.0 0.00 0.00 0.00 71 1019.0
20260506094521 29 123 2.0 4.0 0.00 0.00 0.00 69 1019.2
20260506093025 29 107 3.0 4.0 0.00 0.00 0.00 68 1019.3
20260506091508 30 105 2.0 3.0 0.00 0.00 0.00 68 1019.3
20260506090021 31 107 2.0 3.0 0.00 0.00 0.00 67 1019.3
20260506084521 30 118 2.0 3.0 0.00 0.00 0.00 68 1019.2
20260506083023 30 109 3.0 4.0 0.00 0.00 0.00 66 1019.1
20260506081530 31 98 2.0 3.0 0.00 0.00 0.00 66 1019.1
20260506073020 30 111 1.0 3.0 0.00 0.00 0.00 66 1019.3
20260506071525 31 67 0.0 3.0 0.00 0.00 0.00 67 1019.3
20260506061505 32 134 2.0 4.0 0.00 0.00 0.00 65 1019.2
20260506044510 33 69 0.0 2.0 0.00 0.00 0.00 58 1019.4
20260506043015 34 83 2.0 3.0 0.00 0.00 0.00 57 1019.3
20260506041518 35 18 0.0 4.0 0.00 0.00 0.00 53 1019.2
20260506040025 36 85 1.0 5.0 0.00 0.00 0.00 51 1019.2
20260506034517 37 309 3.0 8.0 0.00 0.00 0.00 49 1019.0
20260506033011 36 250 3.0 7.0 0.00 0.00 0.00 56 1018.8
20260506031515 37 280 1.0 9.0 0.00 0.00 0.00 49 1018.8
20260506030033 37 84 3.0 10.0 0.00 0.00 0.00 46 1018.4
20260506024550 38 33 2.0 8.0 0.00 0.00 0.00 43 1018.1
20260506023013 39 26 2.0 4.0 0.00 0.00 0.00 45 1017.9
20260506021516 40 91 3.0 8.0 0.00 0.00 0.00 44 1017.7
20260506020016 42 331 0.0 4.0 0.00 0.00 0.00 43 1017.5
20260506014524 42 74 0.0 8.0 0.00 0.00 0.00 46 1017.1
20260506013037 41 360 3.0 14.0 0.00 0.00 0.00 45 1017.0
20260506011510 40 31 1.0 7.0 0.00 0.00 0.00 49 1017.0
20260506010021 40 352 3.0 7.0 0.00 0.00 0.00 48 1016.7
20260506004520 41 40 4.0 11.0 0.00 0.00 0.00 47 1016.6
20260506003033 41 134 2.0 14.0 0.00 0.00 0.00 50 1016.6
20260506001527 42 48 4.0 11.0 0.00 0.00 0.00 48 1016.3
20260506000013 42 80 2.0 9.0 0.00 0.00 0.00 47 1016.3
20260505234517 44 69 6.0 11.0 0.00 0.00 0.00 44 1016.2
20260505233021 45 39 1.0 4.0 0.00 0.00 0.00 44 1016.1
20260505231525 45 67 0.0 4.0 0.00 0.00 0.00 43 1016.0
20260505230041 46 342 5.0 11.0 0.00 0.00 0.00 37 1015.9
20260505224515 46 352 3.0 15.0 0.00 0.00 0.00 39 1015.9
20260505223020 48 267 3.0 15.0 0.00 0.00 0.00 36 1015.8